Weather History for Bogalusa, LA

Change the Weather History Date:

Friday, February 1, 2013

  Actual Average Record
Temperature  
Mean Temperature 48 °F -  
Max Temperature 61 °F 63 °F 75 °F (2014)
Min Temperature 35 °F 38 °F 34 °F (2014)
Degree Days  
Heating Degree Days 17    
Moisture  
Dew Point 36 °F    
Average Humidity 71    
Maximum Humidity 100    
Minimum Humidity 30    
Precipitation  
Precipitation 0.00 in - - ()
Sea Level Pressure  
Sea Level Pressure 30.37 in    
Wind  
Wind Speed 2 mph (NE)    
Max Wind Speed 12 mph    
Max Gust Speed -    
Visibility 10 miles    
Events      
Averages and records for this station are not official NWS values.
T = Trace of Precipitation, MM = Missing Value Source: NWS Daily Summary

Daily Weather History Graph

Daily Weather History Graph

Search for Another Location

Airport:

Trip Planner

Search our weather history database for the weather conditions in past years. The results will help you decide how hot, cold, wet, or windy it might be!

Date:

Astronomy

Feb. 01, 2013 Rise Set
Actual Time 6:50 AM CST 5:35 PM CST
Civil Twilight 6:25 AM CST 6:00 PM CST
Nautical Twilight 5:56 AM CST 6:29 PM CST
Astronomical Twilight 5:28 AM CST 6:58 PM CST
Moon 11:13 PM CST (2/1) 9:51 AM CST (2/1)
Length of Visible Light 11h 35m
Length of Day
10h 44m
Waning Gibbous, 70% of the Moon is Illuminated
Feb 1
Waning Gibbous
Feb 3
Last Quarter
Feb 10
New
Feb 17
First Quarter
Feb 25
Full

Hourly Weather History & Observations

Time (CST) Temp. Windchill Dew Point Humidity Pressure Visibility Wind Dir Wind Speed Gust Speed Precip Events Conditions
12:15 AM 37.9 °F - 37.0 °F 97% 30.34 in 10.0 mi Calm Calm - N/A   Unknown
12:35 AM 38.5 °F - 34.7 °F 86% 30.35 in 10.0 mi Calm Calm - N/A   Unknown
12:55 AM 37.0 °F - 37.0 °F 100% 30.36 in 10.0 mi Calm Calm - N/A   Unknown
1:15 AM 38.3 °F - 38.3 °F 100% 30.35 in 10.0 mi Calm Calm - N/A   Unknown
1:35 AM 37.8 °F - 37.8 °F 100% 30.35 in 10.0 mi Calm Calm - N/A   Unknown
1:55 AM 37.9 °F - 37.9 °F 100% 30.35 in 10.0 mi Calm Calm - N/A   Unknown
2:15 AM 37.4 °F - 37.4 °F 100% 30.34 in 10.0 mi Calm Calm - N/A   Unknown
2:35 AM 36.1 °F - 36.1 °F 100% 30.34 in 10.0 mi Calm Calm - N/A   Unknown
2:55 AM - - - N/A% 30.33 in 10.0 mi Calm Calm - N/A   Unknown
3:15 AM 36.0 °F - 36.0 °F 100% 30.33 in 10.0 mi Calm Calm - N/A   Unknown
3:55 AM 36.5 °F - 36.5 °F 100% 30.33 in 10.0 mi Calm Calm - N/A   Unknown
4:15 AM - - - N/A% 30.33 in 10.0 mi Calm Calm - N/A   Unknown
4:35 AM - - - N/A% 30.34 in 10.0 mi Calm Calm - N/A   Unknown
4:55 AM - - - N/A% 30.34 in 10.0 mi Calm Calm - N/A   Unknown
5:15 AM - - - N/A% 30.35 in 10.0 mi Calm Calm - N/A   Unknown
5:35 AM 37.4 °F - 37.4 °F 100% 30.36 in 10.0 mi Calm Calm - N/A   Unknown
5:55 AM 36.0 °F - 36.0 °F 100% 30.38 in 10.0 mi Calm Calm - N/A   Unknown
6:15 AM - - - N/A% 30.40 in 10.0 mi Calm Calm - N/A   Unknown
6:35 AM 35.6 °F - 35.6 °F 100% 30.39 in 10.0 mi Calm Calm - N/A   Unknown
6:55 AM 36.5 °F - 36.5 °F 100% 30.40 in 10.0 mi Calm Calm - N/A   Unknown
7:15 AM - - - N/A% 30.41 in 10.0 mi Calm Calm - N/A   Unknown
7:35 AM - - - N/A% 30.41 in 10.0 mi Calm Calm - N/A   Unknown
7:55 AM 37.9 °F - 37.9 °F 100% 30.42 in 10.0 mi Calm Calm - N/A   Unknown
8:15 AM 39.6 °F - 39.6 °F 100% 30.43 in 10.0 mi Calm Calm - N/A   Unknown
8:35 AM 41.5 °F - 40.6 °F 97% 30.42 in 10.0 mi Calm Calm - N/A   Unknown
8:55 AM 43.7 °F 42.1 °F 36.7 °F 76% 30.43 in 10.0 mi NNE 3.5 mph - N/A   Unknown
9:15 AM 44.8 °F 40.4 °F 37.8 °F 76% 30.43 in 10.0 mi NNE 8.1 mph - N/A   Unknown
9:35 AM 46.4 °F 42.4 °F 36.9 °F 69% 30.43 in 10.0 mi NNE 8.1 mph - N/A   Unknown
9:55 AM 48.6 °F - 37.2 °F 65% 30.44 in 10.0 mi NNE 10.4 mph - N/A   Unknown
10:15 AM 49.8 °F - 36.9 °F 61% 30.44 in 10.0 mi North 8.1 mph - N/A   Unknown
10:35 AM 52.0 °F - 35.8 °F 54% 30.43 in 10.0 mi NE 11.5 mph - N/A   Unknown
10:55 AM 51.8 °F - 33.6 °F 50% 30.42 in 10.0 mi NNE 10.4 mph - N/A   Unknown
11:15 AM 53.1 °F - 34.5 °F 49% 30.42 in 10.0 mi NNE 6.9 mph - N/A   Unknown
11:35 AM 53.6 °F - 34.2 °F 48% 30.41 in 10.0 mi ENE 6.9 mph - N/A   Unknown
11:55 AM 55.4 °F - 34.7 °F 46% 30.40 in 10.0 mi NNE 5.8 mph - N/A   Unknown
12:15 PM 55.4 °F - 33.4 °F 43% 30.40 in 10.0 mi ENE 4.6 mph - N/A   Unknown
12:35 PM 56.3 °F - 32.7 °F 41% 30.39 in 10.0 mi NE 4.6 mph - N/A   Unknown
12:55 PM 56.7 °F - 32.4 °F 40% 30.38 in 10.0 mi East 5.8 mph - N/A   Unknown
1:15 PM 57.6 °F - 33.3 °F 40% 30.37 in 10.0 mi Calm Calm - N/A   Unknown
1:35 PM 59.2 °F - 32.0 °F 36% 30.37 in 10.0 mi ENE 4.6 mph - N/A   Unknown
1:55 PM 59.9 °F - 32.2 °F 35% 30.36 in 10.0 mi East 6.9 mph - N/A   Unknown
2:15 PM 59.9 °F - 31.6 °F 34% 30.35 in 10.0 mi NE 4.6 mph - N/A   Unknown
2:35 PM 60.1 °F - 31.8 °F 34% 30.35 in 10.0 mi Calm Calm - N/A   Unknown
2:55 PM 61.0 °F - 32.0 °F 34% 30.35 in 10.0 mi ENE 5.8 mph - N/A   Unknown
3:15 PM 61.2 °F - 31.8 °F 33% 30.34 in 10.0 mi NE 4.6 mph - N/A   Unknown
3:35 PM 61.0 °F - 30.6 °F 32% 30.34 in 10.0 mi ENE 4.6 mph - N/A   Unknown
3:55 PM 61.0 °F - 29.3 °F 30% 30.34 in 10.0 mi ENE 5.8 mph - N/A   Unknown
4:15 PM 61.0 °F - 29.8 °F 31% 30.34 in 10.0 mi ENE 5.8 mph - N/A   Unknown
4:35 PM 60.6 °F - 30.2 °F 32% 30.34 in 10.0 mi East 3.5 mph - N/A   Unknown
4:55 PM 59.9 °F - 29.7 °F 32% 30.34 in 10.0 mi Calm Calm - N/A   Unknown
5:15 PM 58.5 °F - 29.8 °F 34% 30.34 in 10.0 mi Calm Calm - N/A   Unknown
5:35 PM 54.1 °F - 39.4 °F 57% 30.34 in 10.0 mi Calm Calm - N/A   Unknown
5:55 PM 50.0 °F - 41.7 °F 73% 30.34 in 10.0 mi Calm Calm - N/A   Unknown
6:15 PM 48.0 °F - 41.4 °F 78% 30.34 in 10.0 mi Calm Calm - N/A   Unknown
6:35 PM 46.6 °F - 40.6 °F 80% 30.34 in 10.0 mi Calm Calm - N/A   Unknown
6:55 PM 45.3 °F - 40.1 °F 82% 30.34 in 10.0 mi Calm Calm - N/A   Unknown
7:15 PM 43.3 °F - 37.8 °F 81% 30.34 in 10.0 mi Calm Calm - N/A   Unknown
7:35 PM 43.5 °F - 42.3 °F 95% 30.34 in 10.0 mi Calm Calm - N/A   Unknown
8:15 PM 40.3 °F - 40.3 °F 100% 30.35 in 10.0 mi Calm Calm - N/A   Unknown
8:35 PM 41.4 °F - 41.4 °F 100% 30.35 in 10.0 mi Calm Calm - N/A   Unknown
8:55 PM 40.5 °F 37.3 °F 40.5 °F 100% 30.36 in 10.0 mi SW 4.6 mph - N/A   Unknown
9:15 PM 40.6 °F - 40.6 °F 100% 30.36 in 10.0 mi Calm Calm - N/A   Unknown
9:55 PM 38.5 °F - 38.5 °F 100% 30.36 in 10.0 mi Calm Calm - N/A   Unknown
10:15 PM - - - N/A% 30.36 in 10.0 mi Calm Calm - N/A   Unknown
10:35 PM - - - N/A% 30.36 in 10.0 mi North 4.6 mph - N/A   Unknown
10:55 PM - - - N/A% 30.37 in 10.0 mi Calm Calm - N/A   Unknown
11:15 PM - - - N/A% 30.37 in 10.0 mi NNE 3.5 mph - N/A   Unknown
11:35 PM - - - N/A% 30.37 in 10.0 mi North 5.8 mph - N/A   Unknown
11:55 PM - - - N/A% 30.36 in 10.0 mi Calm Calm - N/A   Unknown